OneWeb SL0229

operational
NORAD ID: 48779 Int'l Des: 2021-045 Owner: ONEWEBN Country: UK Constellation: oneweb
LEOCIRCULARPOLARONEWEB_TYPE

OneWeb SL0229について

説明を読み込み中...

リアルタイム位置

3D地球を読み込み中...

次回通過

高度履歴

Altitude vs Time

uPlot chart will show altitude changes over time

軌道要素

1 48779U 21045N 25258.57083617 -.00000212 00000-0 -59708-3 0 9995
2 48779 87.9023 313.9869 0001762 93.4031 266.7301 13.15549558208305
Epoch: Sep 15, 2025 • Age: 14 hours

現在のステータス

高度 1227.3 km
速度 7.24 km/s
衛星直下点 -63.60°S, 87.06°E
打ち上げ日 May 28, 2021
運用期間 4.3 years
タイプ internet

技術仕様

分類 Payload
質量 148.00 kg
乾燥質量 140.00 kg
総質量 148.00 kg
長さ 1.30 m
直径 1.00 m
スパン 5.00 m
形状 Trapezoid+2 pan
製造者 ONEWUS
バスタイプ ARROW
フェーズステータス In Orbit
所有者/国 ONEWEBN/UK

大規模コンステレーション

Loading constellations...